Theta_e
315 314 314 316 319 322 321 320 320 320 323 322 319 322 319 317 318 316 317 316 317 318 316 316 315 315 317 318 318 321 320 324 325 320 322 322 322 324 327 331 333 336 334 335 338 338 337 337 336 335 333 330 329 329 330 329 329 328 327 329 333 333 333 332 326 320 319 320 323 325 328 328 328 328 327 325 324 326 328 329 330 328 326 325 323 319 313 311 311 307 306 307 307 308 309 311 312
314 314 315 318 321 323 320 319 325 326 327 319 316 321 319 318 318 319 320 318 319 319 318 318 317 318 319 319 319 320 322 324 323 321 322 321 321 322 324 328 333 336 335 335 338 338 338 338 337 337 335 332 331 330 329 329 329 328 327 328 332 332 331 329 322 319 319 320 322 324 326 328 328 327 326 324 324 324 326 328 328 325 323 322 320 317 314 313 312 308 306 306 306 307 307 309 310
314 314 316 321 322 321 323 321 323 328 329 321 320 324 319 317 319 320 319 317 319 319 319 318 319 320 319 321 321 321 321 321 322 322 320 319 321 320 321 326 332 336 334 334 337 337 338 338 338 337 337 334 331 330 330 329 329 328 327 328 330 331 330 325 320 318 319 319 319 321 324 326 327 326 325 324 324 324 325 327 326 322 321 320 319 318 316 314 313 309 306 305 305 306 307 307 308
314 317 319 322 322 321 334 333 327 331 328 322 323 325 322 321 321 317 315 317 319 317 317 318 319 319 319 322 322 322 323 320 321 321 319 319 319 319 319 323 331 335 334 335 335 337 337 338 338 337 336 334 332 332 331 330 329 328 328 328 328 330 329 322 318 318 318 319 319 320 322 323 324 324 325 324 324 324 324 325 323 320 320 320 319 319 317 314 313 309 305 305 305 306 307 307 308
318 320 320 322 323 322 331 327 326 330 322 323 323 323 330 329 321 313 314 318 317 316 316 318 321 320 320 321 320 322 324 321 320 319 318 319 318 318 320 322 329 334 334 334 335 336 338 338 338 337 337 336 335 334 334 332 330 329 328 327 327 327 326 321 318 318 318 319 319 320 321 321 321 323 324 323 322 323 323 322 321 320 320 320 321 320 318 314 313 310 305 305 305 305 306 306 306
320 321 320 321 320 317 322 320 321 325 319 325 324 323 330 323 316 313 313 315 315 316 316 317 320 319 320 321 322 321 322 321 319 318 317 318 319 319 322 322 328 334 334 334 334 336 338 338 338 338 337 337 336 335 335 333 331 330 329 327 327 326 326 324 321 319 319 320 321 321 322 321 322 324 324 323 322 322 322 322 322 321 321 322 322 322 319 314 313 310 305 304 304 304 305 304 305
320 321 319 320 319 316 326 326 322 323 317 317 320 324 323 314 314 313 312 314 315 315 316 317 318 319 320 321 322 321 321 320 317 317 316 317 319 320 324 325 328 333 334 334 334 335 337 337 338 339 338 337 337 336 335 334 332 331 330 328 327 328 327 326 324 322 322 323 322 322 323 322 323 325 326 325 324 324 325 325 324 324 324 324 323 322 319 314 312 310 305 304 304 304 304 304 304
321 320 318 324 326 324 331 325 321 323 315 310 313 318 316 314 314 312 312 314 314 315 317 318 317 318 320 319 320 320 320 319 316 316 316 317 319 321 324 326 328 332 333 334 334 335 335 336 338 338 338 338 337 337 336 335 333 332 331 329 328 329 328 327 326 324 323 323 323 323 324 323 324 326 326 326 327 327 327 327 327 327 325 323 323 323 320 315 312 310 306 303 303 303 303 304 304
320 320 319 325 329 329 331 321 317 318 316 314 312 314 314 315 314 311 312 312 313 315 317 317 315 316 318 318 319 319 318 317 316 315 315 316 319 321 323 326 329 332 333 333 333 334 334 335 336 337 337 337 337 337 336 335 335 334 332 330 330 330 330 330 328 326 324 324 324 324 324 324 325 326 326 327 328 328 328 328 328 328 325 323 323 324 321 316 313 310 307 304 303 303 303 304 304
319 321 317 324 330 326 323 318 319 319 317 316 311 313 315 314 313 311 312 313 313 315 317 316 314 316 317 318 318 318 318 317 315 315 316 316 318 320 322 325 326 330 333 332 332 333 333 333 335 336 335 336 337 337 336 336 335 335 333 331 330 330 330 331 330 328 327 325 325 325 325 325 326 326 327 327 328 328 328 327 328 328 325 322 323 325 323 319 314 311 308 305 303 302 302 303 303
319 318 318 332 333 322 322 320 322 322 318 315 312 313 314 313 312 311 312 313 313 315 316 315 315 317 316 317 318 317 318 316 315 314 315 316 317 319 323 325 323 324 330 332 332 331 332 334 334 335 335 335 336 336 337 336 336 335 334 333 332 331 330 331 330 330 330 328 326 326 326 325 326 326 326 327 327 327 327 327 327 328 326 322 324 325 324 322 317 313 311 308 306 304 303 302 302
318 319 329 341 331 323 327 323 319 324 323 319 316 314 314 313 312 312 313 314 314 314 314 315 316 317 316 316 317 317 317 316 315 314 315 315 316 318 322 326 323 322 329 331 331 331 332 334 335 337 337 335 336 336 337 337 337 336 335 335 333 332 331 331 330 329 331 329 327 326 325 325 325 326 326 326 326 326 327 326 326 328 326 323 324 325 325 324 321 317 315 312 310 308 306 305 304
317 321 339 331 319 323 325 321 319 323 323 319 315 313 314 312 313 314 313 314 313 314 314 314 316 316 317 316 316 316 317 316 314 315 315 315 316 317 320 323 322 324 327 324 326 330 332 336 336 337 337 336 336 336 336 336 336 336 335 335 334 333 332 332 331 330 330 329 328 326 324 324 324 325 325 325 326 326 326 325 325 326 326 323 324 325 326 324 323 320 318 317 315 314 312 310 309
316 319 335 325 314 321 321 320 319 318 321 319 315 312 314 312 313 314 314 316 313 314 315 314 316 316 316 315 316 315 316 316 315 315 314 316 316 317 317 319 326 327 321 320 327 330 329 334 335 335 336 335 336 335 335 335 336 336 336 336 334 334 332 332 332 331 330 329 329 327 325 324 323 323 324 324 325 326 325 326 326 326 325 324 324 325 326 325 323 322 320 319 319 318 317 316 315
316 314 328 328 317 319 319 319 319 319 321 320 315 313 314 313 314 314 314 316 314 314 314 315 316 316 316 316 317 315 315 315 315 316 314 317 316 318 320 321 332 329 321 328 331 331 327 329 331 331 333 334 334 334 334 334 336 336 336 336 335 334 333 333 332 331 331 329 329 327 325 323 323 323 323 323 323 324 325 327 327 326 326 324 324 325 326 326 324 322 320 320 320 320 319 319 318
316 315 329 331 318 318 317 317 319 320 320 315 314 314 314 313 313 314 314 315 314 314 314 316 316 315 316 315 317 315 315 314 314 315 313 317 315 318 324 325 332 327 326 336 333 331 331 331 331 330 329 330 332 332 333 334 335 336 335 335 335 335 334 333 332 331 331 330 329 328 325 324 323 322 323 323 322 324 325 327 327 327 327 325 325 325 326 326 325 323 321 320 321 321 320 320 320
314 320 333 330 320 321 318 318 319 321 322 314 312 314 314 314 313 314 315 314 314 314 314 315 315 315 315 314 316 315 314 313 313 314 312 315 314 316 319 322 329 325 325 337 337 332 333 334 335 336 332 327 330 331 333 333 335 335 334 335 335 335 335 334 333 332 331 330 330 328 326 325 324 323 322 323 323 324 325 327 327 327 327 326 326 325 326 326 325 324 322 321 321 321 321 321 321
320 331 331 323 322 323 321 321 316 317 322 314 312 314 315 316 314 314 315 314 314 314 314 315 315 315 316 315 315 315 314 313 313 313 313 313 313 314 314 316 323 322 317 327 333 328 328 331 331 335 331 324 327 330 329 330 333 335 333 333 334 335 334 334 334 333 332 330 330 329 327 326 326 324 323 323 324 324 326 327 328 327 327 326 327 326 326 327 325 324 323 322 322 322 321 321 321
321 331 330 325 325 320 316 316 312 313 317 313 313 313 314 316 314 314 315 314 313 315 315 314 315 315 315 315 315 315 314 313 313 313 313 313 313 313 313 313 315 316 314 315 319 318 318 321 323 324 321 319 323 329 330 329 329 331 333 332 332 334 334 334 334 333 332 331 330 329 328 328 328 325 323 324 324 325 326 328 328 327 327 327 327 327 326 326 325 324 323 323 323 322 322 321 321
315 325 333 329 321 314 312 313 313 314 314 312 312 313 313 315 314 315 314 313 313 314 316 314 315 315 315 315 315 315 314 314 313 313 314 313 313 313 313 313 312 313 314 313 313 314 314 315 318 319 317 317 320 329 336 335 331 330 334 335 332 333 334 334 334 333 332 332 331 330 329 330 329 326 325 325 325 328 327 327 328 328 328 328 327 327 325 325 325 325 324 323 324 323 323 322 321
313 321 330 321 312 314 315 314 314 313 313 313 313 313 314 314 315 314 313 314 315 314 315 315 316 316 316 316 315 315 315 315 314 314 314 313 314 313 313 313 313 313 313 313 313 313 313 313 316 317 317 317 318 326 334 336 331 330 336 337 331 331 333 333 333 333 332 332 332 331 330 331 331 328 328 328 328 330 330 328 328 329 329 329 328 327 326 326 326 326 324 324 324 323 323 323 322
314 315 317 313 310 316 316 313 315 314 314 313 312 314 315 314 314 314 313 316 318 315 315 316 315 315 315 315 315 315 315 315 315 314 314 315 314 313 313 313 313 313 313 314 313 313 313 313 314 315 316 317 317 320 325 326 324 327 333 333 328 327 332 332 332 333 332 332 332 332 331 331 331 331 330 330 330 331 331 330 329 329 329 329 329 328 328 327 327 327 325 325 325 324 323 323 322
318 315 311 312 312 314 315 313 314 314 314 313 313 314 314 314 314 314 313 315 317 316 316 316 315 316 315 315 315 315 315 315 315 315 315 314 314 313 313 313 314 314 314 314 313 314 313 313 314 314 315 315 316 315 318 321 322 323 325 331 330 325 331 333 331 332 332 332 331 331 331 330 331 330 330 330 330 331 331 331 330 330 329 329 329 328 328 327 327 327 326 326 325 324 323 323 322
321 319 312 313 313 313 315 314 314 314 314 314 314 314 314 314 316 314 313 316 316 316 316 315 316 316 315 315 315 314 315 315 315 315 314 314 313 313 313 313 314 314 314 313 313 313 312 313 313 313 314 314 315 314 316 318 320 323 321 327 330 323 326 330 330 330 330 332 331 331 330 330 331 329 330 330 330 331 331 330 330 330 329 329 330 328 328 328 327 327 327 327 325 324 323 323 322
319 319 313 313 314 314 315 314 314 314 314 314 314 314 314 314 314 312 314 316 316 316 316 315 315 315 315 315 315 315 314 314 314 314 314 314 313 313 314 313 314 314 313 313 313 313 312 313 312 313 312 313 314 314 317 316 320 332 329 322 324 324 327 329 332 332 330 330 330 331 330 329 330 329 330 331 331 331 330 330 329 329 329 329 329 328 328 328 328 328 327 326 325 325 324 323 322
315 315 314 314 314 314 315 315 314 314 314 314 314 314 313 313 313 313 315 316 315 316 315 315 315 315 316 315 315 315 315 314 314 314 314 313 313 314 314 313 314 313 313 313 312 313 313 313 313 313 312 312 313 313 318 317 320 330 327 324 327 329 330 328 329 331 331 331 330 331 329 328 329 328 330 331 332 332 330 330 329 329 329 329 329 328 329 329 328 328 327 327 326 326 325 323 322
314 314 314 314 314 315 315 315 314 314 314 314 314 315 314 312 313 316 317 316 315 315 315 315 315 315 315 315 315 315 315 315 313 314 313 313 314 314 314 314 314 313 312 312 312 312 313 313 313 313 313 312 312 313 317 319 321 321 318 327 334 330 327 324 324 327 327 327 329 331 330 329 330 329 330 331 331 331 330 330 329 328 329 329 328 327 328 329 329 328 327 327 326 325 324 322 321
314 314 315 314 313 315 315 314 314 314 314 313 314 313 312 311 313 316 315 316 316 315 315 315 315 315 315 315 315 315 315 314 313 313 313 314 314 313 314 313 313 313 312 312 312 313 313 313 313 313 313 312 312 313 315 319 321 321 320 325 329 327 326 326 328 328 325 325 326 328 329 330 330 330 330 330 330 330 330 329 328 327 328 328 326 326 327 329 328 328 327 326 326 325 324 322 320
314 315 318 320 319 319 314 312 313 313 314 314 313 314 316 315 314 315 314 315 316 315 315 315 315 315 314 315 315 315 315 314 314 314 314 314 313 313 313 312 312 312 312 312 312 312 313 313 313 313 313 312 313 313 316 319 320 325 329 324 323 327 329 331 332 329 327 327 325 324 328 329 328 329 329 329 329 330 329 327 326 326 326 325 325 326 326 327 326 326 326 325 324 324 323 322 319
316 313 316 323 325 323 313 310 312 312 314 313 312 319 326 323 315 313 314 314 314 315 315 314 314 314 314 314 314 315 315 314 315 314 314 313 312 312 312 312 312 311 312 312 312 313 313 313 313 313 313 312 314 316 319 322 320 324 328 323 326 332 332 332 331 328 329 327 324 326 328 327 325 326 327 328 328 328 327 325 325 325 324 323 324 325 325 325 325 325 324 323 322 322 322 320 318
320 313 319 325 319 326 320 309 312 314 313 312 313 319 325 325 316 312 314 314 314 314 314 314 314 314 314 314 314 315 315 314 315 314 313 313 312 312 311 312 311 311 312 312 313 313 313 313 313 313 313 313 314 317 320 321 321 321 323 322 326 331 329 327 325 326 327 325 324 326 326 324 324 327 327 327 326 326 325 324 324 323 324 323 324 325 324 324 325 324 322 321 321 321 320 318 316
326 314 324 326 316 331 328 309 310 315 313 310 314 320 321 321 315 312 313 313 313 313 314 314 314 314 314 314 314 314 314 314 314 313 313 313 312 311 311 311 311 311 312 312 313 313 313 313 312 313 314 312 315 320 322 322 324 324 326 325 323 326 326 325 325 325 325 326 326 326 325 323 324 326 326 325 325 324 323 324 323 322 324 325 324 324 323 323 323 322 321 321 320 319 317 316 315
330 318 322 327 319 327 325 312 308 311 313 311 313 319 323 321 313 311 313 312 312 312 313 314 314 314 314 314 314 314 314 314 313 314 313 312 312 311 311 311 311 312 312 312 312 312 313 312 313 314 313 314 318 322 322 322 325 324 325 326 324 326 327 327 326 324 324 327 326 325 326 326 325 325 324 324 323 323 323 323 322 322 324 325 323 322 321 321 321 320 320 318 314 313 312 312 312
330 320 320 326 323 321 322 321 312 307 312 314 313 315 319 318 312 311 313 312 311 311 313 314 314 314 314 314 314 314 314 314 314 314 313 312 312 311 311 311 311 312 312 312 312 312 312 312 313 313 313 317 318 321 323 322 323 323 324 325 324 324 325 327 326 323 325 325 323 324 326 326 326 325 324 323 322 322 322 321 321 322 324 323 322 321 321 321 319 316 315 311 306 305 306 306 307
331 324 324 324 321 318 321 325 315 309 314 315 315 315 316 316 312 311 312 311 311 311 313 314 314 314 314 314 314 314 314 315 315 315 313 312 312 311 311 311 311 312 312 311 312 311 312 312 313 312 314 318 317 321 326 324 324 326 326 325 325 325 325 326 326 325 325 323 323 324 325 325 326 325 323 321 321 321 320 320 322 322 322 321 321 320 319 316 312 308 306 304 302 303 303 303 303
331 332 333 328 322 320 323 326 317 311 314 317 316 316 316 316 314 313 311 310 310 311 313 312 313 313 313 314 314 315 314 316 316 314 313 312 311 311 311 311 311 312 311 311 312 311 312 312 312 314 315 317 318 321 324 324 324 325 324 322 323 325 325 324 324 325 324 322 323 324 324 324 324 322 320 320 320 320 320 321 322 322 321 319 318 316 312 307 304 302 302 301 301 301 301 302 302
324 327 328 324 322 322 323 325 316 308 313 321 318 316 316 315 315 313 310 310 308 308 309 311 313 313 313 314 314 316 315 316 316 314 314 312 311 311 310 311 311 311 311 311 312 311 312 312 312 315 315 316 320 322 324 324 322 322 323 323 322 322 322 321 320 322 323 321 322 323 322 321 320 320 320 319 320 320 321 321 321 320 317 313 311 308 304 302 301 301 300 300 299 299 300 300 301
321 323 322 321 322 323 320 319 315 309 313 322 318 315 316 314 314 312 308 309 309 308 308 310 313 314 314 314 315 316 315 315 315 314 314 312 312 311 310 311 311 311 311 311 312 311 312 312 313 315 314 314 318 320 320 320 320 323 324 324 323 322 322 322 320 321 321 321 322 321 320 319 320 320 320 320 320 320 320 320 318 314 309 306 304 303 301 301 300 299 299 299 298 298 299 299 300
320 322 320 321 322 321 319 316 314 312 313 321 321 316 316 315 313 311 308 309 310 311 312 312 313 313 313 315 315 315 315 315 314 314 314 313 312 311 310 311 310 311 311 311 311 311 311 312 313 315 315 315 318 320 320 320 321 322 322 322 323 323 323 322 321 319 319 320 321 320 319 320 320 320 320 319 319 319 319 318 313 307 303 302 302 301 300 299 299 299 298 298 298 298 298 299 298
320 322 320 322 321 320 322 318 315 314 313 318 320 316 315 314 314 313 310 309 311 312 314 313 313 312 313 314 314 314 314 314 314 314 314 313 312 311 311 311 310 311 311 311 311 311 312 312 313 315 316 316 319 322 322 322 320 319 320 323 322 321 321 321 319 318 318 321 320 319 319 319 319 318 318 318 317 317 315 311 306 302 302 301 300 300 299 299 299 298 298 297 297 297 297 297 297
320 320 319 320 321 320 321 320 317 318 316 315 317 319 322 321 318 318 314 310 310 312 313 313 313 314 314 313 313 313 313 313 313 313 313 313 312 312 311 310 310 310 311 311 311 311 311 312 313 315 315 314 317 322 322 320 318 319 322 323 321 320 320 319 317 317 319 320 319 319 319 317 317 316 316 314 313 310 307 304 302 301 301 299 299 299 299 299 298 298 297 297 296 296 296 296 295
323 323 319 318 321 321 319 318 319 322 325 317 315 324 334 332 326 324 324 322 320 315 311 312 315 316 314 314 315 315 313 313 313 312 312 313 312 311 311 311 310 310 311 311 311 311 311 312 313 314 314 314 314 317 319 318 318 320 321 320 321 320 320 318 317 318 319 319 318 318 317 315 314 313 311 308 305 303 301 301 300 300 299 299 298 298 298 298 297 297 296 296 296 296 295 295 295
323 323 320 317 317 318 318 318 319 325 328 317 313 322 329 327 322 322 328 330 325 318 314 312 314 317 316 315 317 317 316 315 313 312 312 311 311 311 310 311 311 311 311 311 311 311 311 312 313 313 315 315 314 315 317 319 320 319 319 318 319 319 318 317 317 318 318 317 318 317 315 313 310 307 305 302 300 300 300 299 299 298 299 299 298 298 297 297 297 297 296 296 296 296 295 294 295
326 319 318 319 316 318 318 317 319 323 323 317 316 321 322 322 321 322 325 325 322 320 318 314 313 315 317 317 318 318 317 317 315 313 312 312 311 311 311 311 312 311 310 310 311 310 311 311 311 314 316 315 315 316 318 320 320 320 320 319 319 319 317 316 316 318 318 317 317 315 312 308 304 302 300 299 299 299 299 299 298 298 298 298 298 297 297 297 297 296 296 296 296 296 295 295 295
324 314 315 318 318 320 319 318 320 319 319 321 321 319 320 325 326 324 322 321 323 324 322 319 314 315 316 317 318 318 317 316 315 314 313 312 312 312 311 311 311 310 310 310 310 310 311 310 310 313 314 314 315 316 317 318 319 320 320 320 319 318 316 315 316 316 317 316 315 312 307 303 300 299 299 299 299 298 298 298 298 298 298 298 297 297 297 297 297 297 297 297 297 296 296 295 295
315 310 314 318 318 320 321 322 322 321 322 324 324 321 321 325 326 325 322 322 326 324 322 319 314 315 317 317 318 317 317 316 315 314 313 312 312 311 310 310 309 310 310 310 310 311 311 310 310 312 312 315 317 317 316 318 319 319 319 319 319 318 315 315 316 316 316 315 312 308 303 300 299 298 298 299 298 298 298 298 298 298 297 297 297 297 297 297 297 297 297 297 297 296 296 296 296
310 316 322 322 323 323 324 324 322 324 325 322 323 323 321 323 325 327 324 326 328 324 322 320 315 316 317 317 318 318 317 317 316 315 313 311 310 309 309 309 309 309 309 310 310 311 310 310 310 311 313 317 319 316 317 318 318 318 318 317 317 316 314 314 316 315 315 314 309 304 300 299 298 298 298 298 298 298 298 298 298 298 297 297 297 297 297 297 297 297 297 297 297 296 296 296 295
314 327 328 323 326 324 323 325 323 325 326 319 319 318 318 322 326 328 326 326 326 323 323 325 319 317 317 317 317 317 317 317 316 314 313 311 310 309 308 308 308 309 309 309 310 311 310 310 311 310 313 317 319 316 316 317 317 317 317 316 315 314 312 314 315 315 315 312 306 302 300 299 298 298 298 298 298 298 298 298 298 298 298 297 297 297 297 297 297 297 297 296 296 296 295 295 295
318 327 325 323 326 324 324 325 322 325 323 315 314 317 318 320 322 323 322 322 322 318 316 318 315 315 317 318 316 316 316 315 316 315 314 312 311 310 309 309 308 308 309 309 310 311 309 310 312 310 311 315 318 317 316 315 315 315 315 314 314 313 312 313 314 315 315 310 304 301 300 299 299 299 298 298 298 298 298 298 298 298 297 297 297 297 296 296 296 296 296 296 295 295 295 294 294
319 323 324 325 325 326 331 328 321 321 320 313 311 317 320 320 321 321 319 317 318 315 313 313 313 314 316 316 316 316 315 315 315 315 315 314 313 312 310 309 309 309 309 309 309 310 309 310 312 311 311 313 315 316 315 315 314 314 314 313 313 313 312 313 314 315 313 307 302 301 300 300 300 299 298 298 298 298 298 298 297 297 297 297 297 296 296 296 296 296 296 295 295 295 294 294 293
317 321 321 324 327 330 334 331 325 324 323 317 312 317 325 327 324 321 315 312 312 313 315 315 314 315 315 314 314 314 314 315 315 314 315 314 313 312 311 310 309 309 309 309 309 309 309 309 311 311 312 312 312 314 315 315 313 314 314 312 312 312 312 313 314 314 311 305 301 300 299 299 299 298 298 298 298 298 299 298 297 296 296 296 296 295 295 295 295 295 295 295 294 294 293 293 292
317 319 320 322 324 323 321 321 322 321 322 322 318 320 325 325 323 317 312 313 312 311 312 312 315 317 315 313 313 313 313 313 314 314 314 314 313 312 311 310 309 309 308 308 309 309 309 309 310 310 311 313 313 313 315 314 313 314 313 311 311 312 312 313 314 313 308 302 300 299 299 299 298 297 297 297 298 298 298 297 296 296 295 295 295 294 294 294 294 294 294 294 294 293 292 292 292
317 317 320 319 316 318 319 317 314 314 319 323 321 323 325 323 322 319 317 319 318 314 312 310 314 316 313 313 316 314 312 312 313 314 314 314 313 312 311 310 309 309 309 308 309 309 309 309 310 309 310 312 313 313 314 313 313 313 311 310 311 312 312 312 313 311 306 301 299 298 298 298 297 297 297 297 298 297 297 296 295 295 295 294 294 294 294 294 294 294 294 293 293 292 292 291 291
320 320 319 316 314 319 324 322 320 319 322 324 322 322 324 323 322 321 319 320 320 319 316 312 311 313 312 315 318 314 312 312 313 314 313 312 312 312 311 310 309 308 308 309 309 309 309 309 310 309 308 311 313 313 312 312 313 312 310 310 311 312 312 312 312 309 304 299 298 298 298 297 297 296 297 297 297 297 296 295 295 295 294 294 294 293 293 293 293 293 293 293 292 292 291 290 290
317 319 317 317 322 324 322 323 327 326 324 326 325 321 320 320 321 322 320 324 329 324 318 316 313 311 313 316 316 313 313 314 313 313 313 313 312 312 311 310 309 308 308 308 308 309 309 309 309 309 308 310 313 313 311 311 311 311 310 311 311 311 312 311 310 307 302 299 298 298 297 297 296 296 296 297 297 296 296 295 294 294 294 294 294 293 293 293 293 293 293 292 291 291 290 290 289
312 314 313 316 323 323 321 321 323 326 325 326 327 323 321 321 322 325 321 323 331 328 323 323 317 312 314 316 314 314 315 315 314 313 313 313 313 312 311 310 310 309 308 308 308 308 309 309 309 309 309 309 311 311 310 310 311 311 310 311 311 311 311 310 308 304 300 298 298 298 297 297 296 296 296 296 296 296 295 294 294 293 293 294 294 293 293 293 293 292 292 291 291 290 290 289 289
315 317 317 317 318 319 321 320 319 324 327 326 326 324 323 324 322 324 323 321 323 327 330 328 319 314 316 316 314 316 316 314 314 314 313 313 313 312 311 310 309 309 308 307 307 308 308 309 308 309 309 309 310 310 310 310 311 311 311 312 312 311 311 309 306 302 299 297 297 297 297 296 296 296 296 296 295 295 295 294 293 293 293 293 293 293 293 293 292 292 292 291 290 290 289 289 289
316 318 318 317 317 318 320 319 318 321 323 324 325 322 322 326 321 320 324 324 320 320 322 321 318 316 316 316 316 317 316 314 315 314 314 313 312 312 311 310 310 309 308 307 307 307 308 309 308 308 309 309 310 310 310 310 311 311 312 312 312 311 310 308 305 301 298 296 297 297 296 296 295 295 295 295 295 295 294 294 293 293 293 293 293 293 293 293 292 292 291 291 290 290 289 289 289
Wind_Speed
2 1 1 2 3 2 2 3 2 3 4 2 2 1 2 2 0 2 1 2 1 2 2 5 8 10 5 5 7 5 4 3 4 3 2 7 13 13 12 12 11 12 14 13 11 11 11 10 10 10 9 8 7 7 7 8 10 10 11 11 11 10 9 9 10 10 10 10 11 11 12 12 12 12 11 11 11 10 10 11 12 13 15 16 17 18 18 18 19 18 17 14 12 10 8 6 6
2 3 3 4 2 0 1 3 2 3 5 2 2 2 3 3 1 4 5 3 3 8 13 14 13 11 8 8 7 6 5 3 3 4 7 11 13 12 11 12 13 13 14 13 12 11 10 10 10 10 9 8 8 8 8 8 9 10 11 11 11 9 8 8 9 9 9 9 10 10 11 11 11 11 10 10 10 9 9 10 12 14 15 16 17 18 18 19 19 19 17 15 14 12 9 7 8
4 4 5 5 3 2 2 4 2 1 5 1 4 3 2 1 3 5 6 7 13 16 15 13 10 7 5 5 4 3 2 3 5 6 9 12 11 11 11 13 15 15 15 14 13 11 10 10 9 9 9 8 8 8 8 9 9 9 10 10 10 9 7 7 8 8 8 8 9 9 9 11 10 10 10 10 10 9 8 9 12 14 15 17 18 19 19 18 19 19 18 16 15 13 12 11 11
5 6 6 5 2 3 4 4 2 4 3 3 3 4 2 3 6 5 6 14 17 13 7 5 5 4 3 3 3 3 2 4 5 7 9 11 9 9 10 13 15 16 17 15 13 11 10 10 9 8 8 7 7 7 8 8 7 8 9 9 9 8 7 7 7 7 6 7 7 8 8 10 10 10 10 10 10 9 8 9 12 14 17 19 20 20 19 18 19 19 18 16 16 15 15 15 15
6 5 5 3 0 1 3 3 3 4 2 4 2 4 4 5 7 4 6 13 14 7 4 4 3 3 5 4 3 1 3 5 5 7 9 10 9 8 10 13 15 16 17 17 14 12 10 9 9 8 7 7 7 6 6 7 7 7 8 8 8 7 7 7 7 6 5 5 7 7 8 9 10 10 10 10 10 11 11 12 14 16 19 20 21 21 20 19 18 19 18 17 17 17 17 18 18
6 5 4 3 2 2 3 3 2 1 4 5 3 5 5 7 7 5 6 8 10 6 2 3 4 6 5 4 3 4 6 5 5 7 9 9 9 9 10 12 15 16 16 17 15 13 11 10 9 8 7 7 6 5 5 5 7 7 7 7 7 7 7 7 7 6 5 5 7 7 7 9 9 10 10 10 11 13 14 14 16 17 19 20 21 21 21 19 18 18 18 17 17 18 19 19 19
6 5 4 5 4 3 3 3 4 2 2 4 3 5 5 8 8 5 5 5 5 6 5 4 8 7 4 3 4 6 7 5 6 7 8 10 9 10 10 11 15 16 17 17 15 15 13 11 10 8 8 7 6 5 4 4 5 6 6 7 7 7 7 7 7 6 5 5 6 7 7 8 9 9 9 9 10 12 14 14 15 17 18 19 19 20 20 19 18 18 17 17 17 18 19 19 19
5 3 3 4 3 5 4 3 3 2 0 3 3 5 5 8 9 5 3 3 4 5 6 9 8 4 3 5 3 6 8 7 8 8 9 9 9 10 11 11 14 17 17 17 16 14 13 11 9 8 8 7 6 6 5 4 4 5 5 6 7 7 7 6 7 6 6 6 6 7 7 7 8 8 8 8 9 11 12 13 14 15 16 17 18 19 20 19 18 17 17 17 17 18 19 19 18
5 2 2 4 3 3 3 2 1 2 3 4 4 4 4 7 9 4 2 2 3 6 10 11 4 1 6 6 3 8 9 9 10 9 9 9 9 10 11 12 14 16 17 18 17 14 13 11 9 8 7 7 7 6 5 5 5 4 4 6 6 7 7 6 6 6 6 6 6 7 6 7 7 7 7 7 8 9 10 11 12 13 14 15 16 18 19 20 19 18 17 17 17 17 18 17 17
3 2 3 4 3 3 3 1 1 2 4 5 5 4 3 7 8 4 3 3 4 7 10 8 0 2 8 6 4 9 10 10 11 10 9 9 10 10 11 12 13 15 17 18 17 15 13 12 11 10 8 8 8 6 6 6 6 5 5 5 5 5 7 6 5 6 7 6 5 6 6 6 6 7 6 7 8 8 9 10 10 11 13 14 15 16 18 19 19 19 18 18 17 17 17 17 16
2 3 4 5 4 2 2 3 3 3 4 5 5 4 4 8 7 3 3 4 5 5 8 6 2 7 9 4 6 9 11 12 12 11 10 10 11 11 11 11 11 13 17 18 17 16 14 12 11 11 10 9 8 8 9 8 6 6 6 6 5 5 6 6 4 5 6 5 5 5 5 5 5 6 6 6 7 7 8 8 9 9 11 13 14 15 16 18 19 19 19 19 19 18 17 17 16
2 2 4 4 3 3 3 4 3 5 5 5 2 3 4 8 6 4 5 6 6 5 6 5 3 9 6 2 7 10 11 13 13 12 11 10 11 11 12 12 11 12 15 18 18 17 15 14 13 11 11 10 10 10 11 10 7 6 6 6 6 6 6 5 4 5 5 5 4 4 4 4 5 5 5 6 6 6 7 7 7 7 9 11 12 13 14 16 17 18 19 19 19 19 18 17 16
3 2 5 4 3 2 3 4 2 3 4 4 4 3 4 8 7 8 9 7 6 5 5 5 6 8 3 2 7 12 13 14 14 13 12 11 10 11 12 12 11 11 13 15 16 16 16 15 14 13 12 11 11 11 10 8 8 8 7 6 6 6 6 5 5 5 5 5 4 4 3 3 4 4 4 4 4 5 5 5 5 6 8 10 11 12 13 14 15 16 17 18 18 18 18 17 16
4 5 5 3 2 2 4 3 1 2 3 6 4 4 5 6 6 11 11 6 5 5 4 6 10 7 3 3 6 13 16 14 15 14 13 12 11 12 12 12 12 12 10 11 14 14 14 13 13 13 14 14 13 12 11 9 10 10 9 8 7 8 8 7 7 6 6 5 5 4 2 2 3 2 2 3 3 3 3 4 4 5 7 8 10 11 11 12 14 14 15 17 18 18 17 17 16
6 6 5 4 2 1 3 2 2 5 5 5 5 6 6 4 5 11 10 5 5 5 5 8 11 4 3 6 5 12 17 15 16 15 14 13 13 12 11 12 15 15 10 11 13 13 13 12 13 14 15 15 14 14 13 12 12 11 10 10 9 9 9 8 8 7 7 7 6 5 3 2 2 2 1 1 2 2 2 3 3 4 5 7 8 9 10 10 12 13 13 15 16 16 16 16 15
7 6 5 4 2 2 3 2 3 3 5 5 7 7 5 3 7 10 7 4 5 8 8 9 12 6 4 7 6 9 17 16 16 16 14 14 14 13 13 14 17 16 12 14 15 15 15 14 15 16 16 16 17 16 15 14 13 12 11 11 11 10 9 9 9 8 8 8 7 6 4 3 2 2 2 2 2 2 2 3 2 2 3 5 6 7 8 8 10 11 11 12 13 14 15 15 15
6 4 5 3 3 4 4 4 4 4 5 5 8 10 5 3 7 8 6 5 6 10 10 9 12 12 7 7 7 9 17 18 17 17 15 14 15 15 16 16 18 18 16 19 19 18 18 17 17 18 18 18 18 18 18 17 15 14 12 12 12 12 11 10 10 10 9 9 8 7 5 4 3 3 3 3 3 3 4 3 2 1 2 4 5 5 6 7 8 8 8 9 11 13 13 14 14
3 3 4 2 4 4 6 8 7 4 2 6 10 11 7 4 7 8 5 4 6 9 11 10 11 14 12 10 9 10 16 19 18 17 16 15 15 15 17 17 19 20 18 19 22 21 20 20 20 21 21 20 20 19 19 19 16 15 13 14 14 14 13 12 12 11 10 11 10 8 7 6 5 5 4 4 5 4 4 4 3 1 1 2 3 4 4 5 6 6 6 7 9 11 12 12 13
3 3 4 3 6 4 5 9 9 3 1 7 11 9 8 6 9 9 3 3 5 6 9 11 12 14 14 13 12 12 15 20 19 17 16 15 15 17 17 18 18 19 18 17 19 20 19 20 20 21 19 17 20 18 17 18 16 15 16 17 17 16 14 12 13 12 12 12 11 10 8 7 6 6 6 6 6 6 5 4 4 2 1 0 2 2 3 4 4 5 5 6 7 9 10 11 11
2 4 3 4 7 3 4 7 9 6 0 7 11 8 8 6 9 9 4 3 3 6 10 12 14 16 15 14 13 13 15 20 20 18 17 16 16 18 17 18 18 17 17 16 16 17 18 18 18 19 17 15 18 19 18 18 18 16 16 18 19 18 16 14 13 13 13 13 12 11 9 8 8 7 6 7 6 7 6 4 5 4 2 2 1 1 2 3 4 4 4 5 5 7 9 11 10
1 4 3 4 5 1 3 5 7 8 4 6 11 7 5 6 8 9 6 3 4 11 17 17 17 15 14 15 15 14 16 19 21 20 19 17 17 18 17 17 17 17 16 15 15 15 16 17 17 18 18 17 17 20 22 23 22 20 19 20 21 20 18 17 16 15 14 14 13 12 10 8 9 7 7 7 6 9 9 6 6 6 5 3 2 1 1 1 3 5 4 3 4 6 9 10 9
3 2 2 4 6 1 2 3 4 7 6 7 10 7 5 7 8 10 10 6 7 12 14 16 17 14 12 14 15 16 17 18 20 20 20 18 18 18 17 17 16 16 15 15 14 14 15 15 16 17 18 18 18 21 24 25 23 23 25 24 23 21 20 20 19 18 16 16 15 14 11 10 10 8 6 7 7 10 12 9 6 7 7 6 4 3 1 1 1 4 3 2 3 5 8 8 8
2 1 1 5 5 1 2 3 3 6 8 10 10 7 7 8 6 10 14 15 15 11 9 9 12 14 14 14 15 17 17 18 19 19 19 18 18 18 17 16 16 15 14 14 14 14 14 14 15 16 17 18 19 20 21 24 23 24 26 24 24 21 21 23 22 21 19 18 18 16 13 12 12 9 8 9 8 8 12 10 6 6 7 8 7 4 2 4 2 2 2 1 2 4 6 7 7
4 1 1 5 5 2 3 4 5 7 7 9 8 7 7 8 6 6 14 22 21 17 13 11 11 13 15 16 17 18 18 18 18 18 19 18 18 18 18 16 15 14 13 13 14 14 14 14 15 15 16 17 20 19 19 23 22 21 22 23 25 22 21 22 21 22 21 21 20 17 16 14 13 12 10 10 10 9 10 9 6 6 7 9 8 4 5 7 5 2 1 2 2 3 5 6 6
4 2 2 3 3 3 5 5 6 6 5 6 7 6 6 8 7 6 16 21 19 20 20 18 16 14 16 18 18 18 19 19 19 19 19 19 19 19 18 17 16 15 14 14 14 14 13 14 14 15 16 17 20 20 19 21 19 21 23 21 20 20 20 17 18 20 18 20 19 16 17 15 14 13 11 10 11 10 10 10 8 6 7 9 9 6 6 7 8 5 3 3 2 1 3 6 6
2 3 3 2 0 1 5 6 6 6 5 5 6 6 5 6 5 9 21 22 19 20 19 19 19 17 17 17 19 19 19 20 20 20 19 19 19 19 18 17 17 15 15 15 14 13 12 13 14 15 16 17 20 20 21 22 20 26 26 18 16 21 21 17 19 20 17 17 15 15 16 13 13 12 10 11 11 12 11 10 9 7 7 9 8 6 5 7 10 6 1 2 2 4 2 7 6
2 4 2 1 1 2 4 6 6 6 6 6 7 5 4 4 2 8 15 16 18 19 19 19 18 18 18 17 18 19 20 20 20 20 20 20 19 18 19 18 17 16 16 15 14 13 12 13 14 14 16 18 20 21 22 23 23 25 22 19 22 23 21 17 16 17 18 18 17 18 14 10 12 11 11 11 10 11 11 10 8 8 8 9 8 6 7 10 9 5 2 4 4 4 2 6 4
3 2 0 2 4 4 5 6 7 6 5 7 8 4 4 1 3 11 14 11 14 16 18 19 18 18 17 18 19 20 21 20 21 21 21 21 19 18 19 19 18 17 16 15 14 14 13 13 14 14 17 18 20 21 22 24 24 22 19 21 23 21 18 17 16 15 15 15 17 19 15 12 12 12 11 11 11 11 11 10 9 9 9 9 9 7 9 10 7 4 5 5 4 3 3 3 0
4 4 1 5 8 5 4 3 5 6 3 5 5 2 4 4 9 15 13 12 13 15 17 18 18 19 18 19 20 21 21 21 22 23 21 21 20 20 20 20 19 19 18 16 15 14 14 14 14 14 16 17 19 21 20 22 21 19 21 20 18 19 19 19 17 14 11 11 13 14 15 14 12 12 11 11 11 11 11 10 9 9 9 9 9 9 9 9 6 5 5 5 4 4 3 2 2
2 4 2 4 8 5 3 1 3 6 3 4 6 3 6 8 16 17 11 12 14 15 19 19 19 20 20 20 21 23 22 23 24 23 22 22 22 22 23 22 22 21 19 18 16 15 15 14 14 15 16 17 19 20 20 22 21 22 25 20 17 19 19 17 15 13 14 14 13 11 13 13 11 11 10 10 11 10 10 9 8 9 8 8 8 10 10 8 8 7 6 5 5 4 3 0 2
1 2 2 2 2 4 5 1 5 5 4 7 6 3 7 8 13 12 12 14 14 18 20 19 21 20 21 22 23 25 24 25 25 23 23 23 24 24 24 24 23 22 21 19 17 16 15 15 15 15 16 17 19 21 21 21 21 20 21 19 19 21 19 17 16 17 19 16 13 12 12 10 9 10 9 9 9 9 8 9 9 9 8 9 9 10 10 8 8 7 5 4 3 2 2 1 2
3 1 3 3 1 5 8 2 7 4 2 6 5 3 7 9 11 8 10 14 15 19 20 19 21 21 23 24 25 26 26 27 27 25 25 24 25 25 25 25 23 23 21 19 18 17 16 15 16 16 16 17 17 20 20 19 19 19 21 20 18 21 22 21 20 18 17 12 10 11 11 10 10 11 11 10 10 9 8 9 9 8 10 11 9 9 8 6 6 4 3 2 1 1 1 3 4
4 1 3 2 1 3 6 2 4 2 2 4 3 3 4 5 5 3 6 13 16 18 20 20 22 23 24 25 26 27 28 28 29 27 26 26 26 26 26 25 24 23 22 20 18 17 17 16 16 17 16 17 18 21 21 20 21 20 22 20 16 18 21 20 18 16 15 14 12 12 12 12 12 13 13 13 13 11 9 10 9 9 11 11 8 7 6 5 4 3 3 3 1 2 3 5 6
4 2 1 4 2 2 3 4 2 1 2 2 3 3 8 8 6 5 4 9 14 18 21 21 22 24 25 26 27 28 30 30 30 28 27 27 27 27 27 26 25 24 22 20 19 18 17 16 17 17 16 18 19 21 21 20 21 21 22 20 18 21 22 20 19 16 15 14 13 14 14 15 15 14 14 14 12 11 10 10 9 10 10 9 8 6 6 5 5 3 3 6 6 4 5 5 6
3 2 1 3 2 2 4 4 2 2 2 2 3 4 11 13 13 16 14 11 15 19 22 23 24 26 26 27 29 30 32 32 30 27 27 28 27 28 27 27 26 25 23 21 20 19 19 18 18 18 17 19 19 21 22 20 20 21 21 19 19 23 23 18 17 16 14 13 13 15 17 18 16 15 14 12 10 10 11 10 9 10 9 8 8 6 6 6 7 7 6 8 9 7 6 5 5
6 6 4 4 3 3 5 5 5 3 2 4 7 7 11 12 13 17 17 14 17 21 24 26 28 29 29 30 32 33 34 33 30 28 28 29 29 29 28 28 27 25 23 22 21 21 20 19 19 19 20 20 19 22 23 23 23 22 23 23 20 20 18 14 15 16 15 15 15 15 17 18 16 14 13 11 11 10 10 10 10 11 10 8 7 7 9 9 9 9 7 7 7 6 6 6 5
6 5 3 3 4 5 5 5 6 2 3 6 8 8 11 12 12 15 15 10 14 21 24 28 32 33 33 34 35 37 37 36 32 30 30 30 30 31 29 28 28 27 25 24 23 22 21 20 19 20 20 20 21 24 24 24 24 23 25 25 22 20 19 17 17 18 17 17 17 16 16 15 14 13 13 13 12 11 11 11 11 10 10 9 9 9 10 10 8 6 6 6 5 4 5 6 6
4 5 3 3 3 6 6 4 4 1 3 5 5 5 11 13 12 16 14 7 13 22 24 29 35 36 36 37 39 40 38 38 36 34 33 32 33 33 32 31 30 29 27 26 24 23 22 20 19 20 20 20 23 24 24 24 23 23 24 22 20 23 23 19 17 18 18 18 18 17 16 15 14 14 14 14 13 12 12 11 11 10 11 11 10 10 9 7 7 5 4 5 5 4 4 6 6
3 3 2 3 3 5 6 3 4 1 4 4 4 4 10 12 12 15 17 15 20 28 30 33 36 34 36 39 40 40 39 39 39 37 36 35 34 34 34 33 32 30 28 26 24 23 22 21 20 21 20 20 23 23 22 24 24 23 22 21 19 20 20 19 18 18 19 19 18 17 16 15 15 14 15 14 14 13 12 12 12 13 13 11 8 8 8 6 6 5 4 3 3 4 4 5 5
2 3 3 3 3 2 3 4 4 0 2 2 4 6 7 10 11 12 20 24 24 30 35 37 38 35 38 41 39 39 39 40 40 39 38 36 36 36 37 36 34 32 30 27 26 24 23 22 21 22 22 22 24 25 25 25 24 24 25 23 19 18 19 19 18 18 19 20 19 18 17 16 15 15 15 15 15 14 14 13 14 14 13 11 8 7 7 7 6 5 4 3 2 2 3 4 5
4 5 6 5 4 6 6 4 4 2 2 3 3 6 6 7 10 9 11 12 16 27 31 34 39 40 41 42 40 40 40 39 39 39 39 37 38 39 38 37 35 33 32 30 28 26 24 23 22 23 24 23 24 27 28 25 23 25 27 24 22 22 21 20 19 20 21 20 19 19 18 17 16 16 16 17 16 16 16 15 13 12 11 11 9 8 7 6 6 5 5 3 3 3 2 3 4
4 5 10 10 8 7 5 3 5 4 4 3 3 4 6 4 7 9 5 4 9 18 20 25 35 36 36 38 40 41 40 39 39 38 37 36 37 38 38 37 36 35 34 32 28 26 24 23 23 24 24 23 24 28 29 26 24 24 25 24 24 24 22 19 19 21 21 20 20 20 19 18 18 18 19 19 19 18 17 14 13 12 11 11 10 8 7 6 6 6 5 5 4 4 3 3 4
3 5 8 10 7 4 3 1 2 1 4 4 3 1 6 5 7 10 5 5 10 12 12 19 30 32 32 35 37 37 36 37 38 37 36 35 36 38 38 38 38 37 35 32 28 26 24 23 23 24 25 24 24 26 28 29 26 24 24 24 24 23 22 20 20 22 22 21 21 20 20 20 20 21 21 21 19 17 16 15 14 14 12 11 10 8 7 6 6 6 6 5 4 4 4 4 5
3 4 5 7 6 6 5 4 3 3 3 5 2 3 4 6 8 8 3 6 10 11 12 16 25 32 33 34 35 34 34 34 35 35 35 35 35 37 38 38 38 37 35 31 29 27 25 24 24 25 26 25 24 24 25 28 27 26 27 26 25 22 20 20 22 24 23 23 23 22 22 23 24 24 23 21 19 18 17 16 15 14 11 10 9 8 7 6 6 5 5 4 2 3 3 3 2
4 2 6 6 6 5 4 5 3 1 3 6 2 4 3 7 7 4 3 5 8 11 14 14 19 26 27 28 27 26 28 29 30 32 33 34 34 35 36 37 37 37 35 31 29 28 26 24 24 26 27 26 25 24 24 26 28 29 29 28 25 22 19 20 23 25 24 24 24 23 25 26 26 25 23 21 20 19 18 16 15 13 10 9 9 8 6 5 5 3 2 1 1 1 1 1 2
4 6 7 6 5 5 5 4 3 3 3 7 6 6 3 6 4 2 2 4 6 10 12 12 14 18 19 18 16 16 19 21 24 27 29 30 31 32 34 36 37 37 34 31 29 28 26 25 25 26 26 26 27 26 25 28 29 29 29 26 22 21 20 22 26 27 27 26 26 27 29 29 27 26 24 22 21 20 18 16 14 12 10 9 8 7 6 4 3 2 1 1 2 2 2 3 3
8 7 6 6 6 5 4 2 4 2 5 7 6 9 7 5 3 5 5 5 7 8 9 10 11 13 12 10 9 11 12 14 16 19 23 26 27 29 32 35 37 36 34 31 30 29 27 26 26 27 26 27 29 27 26 29 30 29 27 23 22 22 22 25 29 29 30 29 29 31 31 29 28 26 24 23 22 20 18 15 13 12 10 8 8 7 5 4 3 2 3 3 3 3 3 4 4
7 5 5 4 3 4 4 4 4 1 6 4 2 5 7 7 6 4 6 7 6 8 9 9 9 11 11 7 8 9 9 10 12 15 19 23 26 28 32 35 37 37 35 33 32 31 29 27 27 27 28 30 31 29 28 29 30 27 25 24 24 23 23 27 30 30 31 31 32 33 32 31 28 27 25 24 22 20 17 15 13 12 10 9 8 7 6 5 4 4 4 4 4 4 4 4 4
4 4 6 4 2 3 3 3 0 3 7 3 1 1 3 8 8 8 12 12 11 11 12 13 12 18 20 15 12 12 11 11 11 13 17 21 25 28 31 34 37 38 37 35 34 33 31 30 29 29 29 31 33 32 30 30 30 28 26 26 27 24 23 28 30 30 32 33 35 35 33 31 29 28 26 24 22 20 17 15 13 12 11 10 9 8 7 6 6 6 6 5 5 5 4 4 4
4 5 6 4 2 1 3 4 2 4 5 3 1 1 3 5 5 11 17 17 16 17 20 21 20 25 27 23 20 18 18 17 15 15 17 19 23 26 29 33 36 38 38 37 35 34 32 32 32 31 30 32 34 33 32 31 31 30 28 28 28 24 24 28 30 31 33 35 36 35 32 30 28 27 26 24 22 19 17 16 14 13 12 11 10 9 8 7 7 7 7 6 6 6 5 5 5
5 4 5 5 5 5 4 4 3 5 4 3 3 1 3 3 3 8 12 14 16 19 25 26 27 31 30 28 26 25 26 24 22 21 20 20 23 25 28 31 35 38 38 38 37 36 34 33 34 33 32 33 34 35 35 33 31 31 30 29 27 25 25 28 30 31 33 36 36 34 31 29 27 26 25 23 21 19 18 17 15 15 13 12 11 9 9 8 7 7 8 8 7 7 6 6 5
3 3 4 3 5 5 2 3 5 2 3 4 2 4 5 4 6 8 9 11 12 15 20 21 28 34 31 29 30 28 26 25 23 24 24 23 24 25 28 31 34 37 39 39 38 37 35 34 35 34 34 35 35 35 35 33 32 31 30 29 27 27 27 29 30 32 35 37 35 32 30 28 26 26 24 23 21 20 18 17 17 16 14 13 11 10 9 8 8 8 8 8 8 7 6 6 5
2 3 4 4 4 6 2 2 1 4 2 4 2 5 5 3 7 10 8 9 10 11 12 14 24 28 23 26 31 28 23 20 20 22 24 24 24 26 28 31 34 37 39 39 39 38 35 34 35 34 34 36 36 36 35 33 33 32 31 29 28 29 29 30 31 33 36 37 35 32 30 28 27 26 24 23 22 20 19 18 17 16 15 13 11 10 10 9 9 9 9 9 8 7 6 6 6
5 4 6 3 2 3 3 1 3 3 3 5 2 5 5 3 5 5 1 7 11 11 11 14 21 20 20 28 32 27 22 18 18 20 22 24 25 27 29 31 33 36 38 38 37 36 35 34 35 34 35 37 38 37 35 34 34 33 32 31 30 30 30 30 31 33 37 38 35 32 30 29 28 26 25 23 22 22 21 20 18 16 14 13 11 11 10 10 9 9 9 8 7 7 7 7 7
4 4 5 4 2 2 2 2 2 1 3 5 4 5 4 5 5 3 3 8 10 10 10 10 13 16 23 31 29 23 21 19 19 20 21 23 24 26 28 29 31 34 37 38 37 36 36 35 35 35 35 37 39 37 35 35 34 34 33 32 31 30 30 31 32 35 39 38 35 33 32 31 29 27 26 24 23 22 21 20 19 17 15 13 12 11 10 10 10 9 9 7 7 7 7 7 7
3 2 3 2 2 4 3 3 3 3 3 3 4 5 5 7 7 7 10 12 10 8 8 7 11 19 25 25 21 17 16 16 17 18 19 21 22 24 26 27 29 32 35 38 38 37 37 36 36 37 36 37 38 37 36 35 35 34 34 33 32 32 31 32 34 37 40 38 35 34 33 32 30 28 26 25 24 23 21 20 19 17 15 14 12 12 11 10 10 9 8 7 7 8 8 8 8
4 4 5 3 1 1 1 1 2 4 3 2 2 6 9 6 5 9 11 11 10 10 7 7 13 20 20 17 14 14 13 12 12 14 16 18 20 22 24 26 28 31 34 37 39 38 38 37 37 38 38 38 38 38 37 36 36 35 35 34 33 33 33 33 35 39 40 38 36 35 33 32 30 28 27 26 24 23 21 20 18 17 15 14 13 12 11 11 10 9 8 8 8 8 8 9 9
8 8 8 9 7 4 3 3 1 2 2 3 3 6 12 6 5 8 9 8 8 11 10 9 14 18 14 11 12 13 13 11 10 10 13 16 18 20 22 24 27 30 34 37 39 39 39 39 39 38 39 39 39 38 37 37 37 37 36 35 34 33 34 35 37 41 42 40 38 36 34 33 31 29 28 26 24 23 21 20 18 17 16 14 13 12 11 11 9 8 8 8 8 8 9 10 10
Wind_Direction
221 199 178 132 131 140 61 72 97 13 68 85 323 89 240 236 175 162 184 296 292 337 118 143 137 143 137 123 148 120 86 140 161 124 161 154 136 149 158 152 151 157 161 158 154 155 153 145 139 137 134 132 129 116 100 92 88 89 98 104 104 104 106 109 118 117 110 101 90 87 86 80 71 63 59 57 60 59 54 57 58 52 46 40 35 34 36 40 42 43 45 48 52 56 62 60 52
172 162 144 135 94 177 226 57 89 343 51 83 261 163 250 303 53 184 196 218 157 110 105 113 115 118 102 97 100 71 54 55 141 135 134 139 138 151 156 154 152 156 163 158 158 163 155 144 142 139 133 133 130 122 107 99 96 97 101 105 106 107 111 116 123 123 116 105 94 88 87 82 73 66 61 56 61 62 56 54 52 47 41 37 37 38 40 42 43 45 48 51 53 57 62 62 54
148 152 147 143 64 60 132 54 75 76 71 142 261 242 254 7 208 215 202 166 132 117 107 105 99 91 76 73 57 46 81 84 123 129 127 139 144 153 157 158 158 159 163 161 161 164 155 147 150 144 134 135 134 127 112 102 101 102 103 104 103 103 105 118 127 125 117 104 94 89 82 80 75 67 62 61 66 66 60 53 47 42 39 41 42 42 42 43 46 48 50 53 56 60 64 64 61
135 146 147 150 82 55 82 45 117 118 107 189 253 260 225 176 208 221 173 148 136 124 112 110 82 50 50 78 86 80 130 128 134 131 132 143 148 159 161 160 163 162 161 163 163 161 160 157 159 152 138 138 138 131 117 106 104 100 100 101 100 100 98 111 126 126 114 97 89 83 72 69 67 65 64 67 73 74 65 55 46 43 45 47 46 43 43 45 50 53 53 56 59 63 66 68 68
125 139 156 174 168 66 89 69 109 104 176 183 173 253 237 197 195 203 165 159 165 146 109 127 100 88 93 98 111 114 165 155 150 136 136 146 149 161 164 163 165 163 163 163 162 163 165 164 163 158 147 144 143 136 125 108 98 92 94 99 100 103 101 109 123 127 115 96 85 77 66 59 59 62 66 70 73 75 68 59 52 48 50 49 46 44 44 47 53 57 58 61 63 66 69 72 72
123 118 133 149 103 99 117 102 120 150 217 168 146 245 238 200 190 183 159 170 197 194 168 165 144 136 105 85 109 149 162 159 163 146 139 146 149 157 161 167 167 163 164 163 162 165 167 171 169 166 163 157 153 142 127 109 98 95 96 101 104 105 105 110 121 129 120 99 86 78 68 61 63 66 70 74 74 73 67 61 55 52 52 50 45 44 45 48 54 60 62 64 67 69 71 73 74
135 112 99 120 78 47 105 126 170 192 209 166 163 236 224 191 184 169 149 145 187 203 210 177 143 130 107 110 125 159 170 170 167 153 144 144 147 154 155 168 173 166 165 166 164 166 171 175 173 177 176 168 165 160 143 127 115 112 110 113 116 113 111 110 113 119 114 100 89 84 76 68 69 72 74 77 79 77 69 62 57 54 53 49 45 44 46 50 56 61 63 66 68 71 72 73 73
148 139 90 111 46 26 86 102 189 184 201 228 233 241 217 182 179 178 176 146 157 190 179 157 141 114 152 157 167 183 176 175 171 161 153 147 145 150 154 166 174 170 168 171 170 170 173 172 176 185 179 174 176 172 158 152 146 132 128 130 127 123 118 110 109 112 109 98 90 88 79 73 73 73 73 74 77 77 69 62 58 56 53 48 47 47 49 53 58 62 66 69 70 72 73 74 73
137 158 89 91 71 37 52 35 241 229 273 269 265 245 209 182 186 188 185 143 155 171 160 155 135 16 179 174 192 187 181 179 176 170 161 154 151 151 155 162 170 173 173 175 175 174 175 172 178 187 178 181 187 179 176 180 175 157 146 145 135 129 126 120 119 116 112 102 94 93 82 79 80 75 72 72 73 73 66 60 59 57 53 49 49 51 53 55 59 63 66 70 73 74 75 75 75
110 115 119 86 78 50 30 326 264 250 258 272 271 242 196 187 191 190 171 130 141 159 164 171 237 156 167 174 181 183 190 186 180 178 174 167 160 158 159 162 171 176 177 178 179 180 180 180 182 188 184 192 199 191 202 202 186 174 160 154 144 136 134 133 137 128 121 114 104 99 91 90 85 78 72 66 69 69 64 59 60 57 51 51 53 54 55 56 59 63 66 70 74 75 76 75 75
86 75 109 79 75 99 179 210 259 266 270 304 289 235 198 193 187 174 157 135 148 155 172 190 223 158 152 172 183 187 195 189 185 182 181 179 170 166 165 169 174 176 178 178 183 185 184 188 191 195 191 195 206 208 212 201 192 190 172 166 162 154 144 141 151 140 132 126 114 104 96 93 85 79 69 63 68 66 63 59 58 57 51 52 55 56 56 56 60 64 67 71 73 75 75 74 73
145 43 82 86 122 177 194 169 228 281 311 327 267 211 203 193 188 187 162 149 160 151 172 187 194 160 140 189 189 193 196 191 190 187 187 187 180 173 174 182 184 173 175 181 185 188 187 191 195 202 201 196 205 219 216 193 190 205 189 181 175 169 159 154 165 154 146 142 127 112 96 86 84 80 71 70 71 68 65 57 53 54 50 52 58 59 58 57 61 66 70 72 73 73 72 72 71
173 123 90 101 145 154 151 143 220 314 325 278 207 199 196 190 206 205 170 148 159 148 176 191 178 166 155 209 195 198 196 196 194 190 192 192 191 185 184 191 196 182 177 185 185 188 191 194 196 199 202 199 204 218 220 198 194 208 204 197 189 182 175 173 178 167 159 159 148 127 103 86 89 90 90 87 83 82 72 58 54 52 47 51 58 61 60 58 61 67 72 75 73 72 70 69 68
156 135 102 109 99 111 142 133 218 172 247 252 214 198 186 195 222 204 170 150 177 167 189 185 167 166 197 193 209 204 196 200 196 196 195 193 201 197 197 193 200 203 187 184 184 192 197 199 203 201 204 203 204 212 217 214 208 210 205 204 207 197 188 190 191 179 175 174 169 160 141 118 110 113 116 111 113 105 84 75 67 56 48 50 55 60 61 58 61 65 70 74 72 70 68 66 65
137 118 90 103 81 84 165 167 157 157 231 230 188 196 184 197 204 190 178 168 194 180 167 168 168 173 210 195 226 208 199 204 198 201 200 198 207 203 207 195 200 214 200 191 193 200 204 204 211 213 214 211 210 213 214 215 215 213 203 206 217 209 199 198 200 193 188 185 185 183 178 171 147 156 158 144 152 135 109 102 84 63 53 51 51 55 60 59 61 63 65 69 69 66 65 63 61
128 110 74 89 120 175 177 170 123 132 248 213 175 184 162 174 169 176 193 189 186 178 169 174 185 198 209 209 239 214 202 207 202 206 206 206 214 207 208 202 207 216 199 200 207 208 207 206 212 217 220 218 218 216 216 215 213 213 208 210 214 211 211 208 208 206 199 198 199 197 197 197 190 194 192 201 191 163 149 135 111 84 63 56 50 54 62 60 62 64 63 68 68 65 63 60 56
112 90 70 90 157 190 185 172 167 165 238 222 182 181 153 149 170 176 199 196 188 183 183 191 202 211 226 234 245 224 205 206 208 210 210 212 219 217 215 209 213 220 205 199 208 212 206 204 209 215 221 223 221 218 218 216 210 213 216 217 212 210 216 216 214 213 208 206 207 210 206 202 212 221 209 211 214 193 177 163 144 129 54 54 49 55 69 67 65 68 68 72 72 67 64 59 54
91 98 95 147 175 193 190 179 189 166 202 208 185 184 171 164 175 173 176 186 195 195 202 208 215 220 232 245 241 227 210 206 210 213 216 218 223 228 228 222 219 226 222 208 209 216 212 210 213 219 227 224 217 219 223 221 215 217 224 226 217 214 217 216 215 213 212 210 212 216 207 206 218 223 220 218 222 214 193 173 165 168 21 51 54 58 78 82 75 78 81 80 75 70 65 59 54
78 103 98 195 194 206 197 179 191 171 63 185 178 184 183 179 174 170 181 197 186 200 219 222 227 228 232 241 233 224 215 210 212 217 221 224 228 234 238 238 234 234 235 227 222 224 223 221 219 225 233 221 208 212 223 226 223 223 229 231 225 220 218 217 214 209 210 212 214 215 207 213 221 219 223 222 227 230 207 177 177 182 230 95 72 65 90 105 97 95 100 93 83 77 69 60 53
74 96 95 231 212 229 219 194 205 208 185 168 172 182 187 189 180 179 197 194 197 220 222 223 230 232 233 234 228 224 219 215 217 220 225 229 233 238 240 243 245 244 242 240 235 232 231 229 226 230 235 224 207 203 213 225 224 220 222 226 226 223 219 218 213 208 214 218 215 210 209 221 218 213 224 225 226 226 210 180 181 186 212 225 87 68 98 116 113 105 106 101 94 86 73 59 50
77 103 151 219 188 184 229 216 224 217 215 178 172 167 185 197 190 195 185 158 251 238 228 230 237 242 241 235 229 227 224 221 222 225 230 234 237 239 241 242 245 246 246 244 240 237 234 231 230 231 234 233 220 208 210 221 221 212 214 224 227 223 223 223 216 213 218 218 215 210 213 226 217 211 219 221 225 219 206 180 179 189 198 200 170 101 69 89 112 104 101 90 78 72 65 53 43
78 57 212 170 144 129 228 204 208 204 196 177 167 162 190 192 198 211 194 189 240 244 242 242 245 249 249 245 239 233 228 226 228 231 233 235 240 241 242 243 244 244 245 245 243 240 237 233 232 232 234 234 229 221 218 225 225 213 216 231 238 228 222 227 222 219 222 218 218 218 222 224 211 213 226 224 234 224 204 183 175 188 195 204 196 157 114 322 62 86 79 63 46 45 53 46 32
94 355 231 161 162 145 170 180 175 180 177 174 174 184 194 182 208 225 214 226 239 244 254 247 247 244 243 247 243 239 235 233 234 236 239 239 241 243 243 243 243 243 240 242 244 243 242 239 238 236 235 235 235 231 223 226 228 224 221 225 239 236 221 227 228 223 223 222 223 224 227 225 216 223 237 230 229 218 204 197 191 192 199 211 201 167 218 277 298 15 27 50 38 27 36 36 22
101 114 197 177 209 241 174 180 169 167 180 188 186 194 198 192 209 233 230 239 244 248 252 248 252 247 244 245 242 243 240 239 239 239 242 243 243 243 241 238 236 235 233 237 240 243 245 243 245 243 239 237 238 237 228 224 224 233 231 219 230 238 225 227 232 231 229 227 229 231 231 228 227 233 234 226 219 208 204 211 214 205 204 206 204 209 264 260 244 269 266 196 82 35 3 14 18
64 142 206 177 212 229 186 185 181 181 202 204 201 208 214 212 218 249 245 247 248 249 253 253 255 253 249 246 243 242 239 239 240 239 240 241 242 241 238 233 227 227 228 232 235 239 241 241 244 244 243 238 238 239 231 227 216 217 230 229 229 234 230 221 219 230 235 235 233 231 233 228 226 228 224 219 216 215 212 216 216 207 204 205 215 242 266 242 213 215 191 169 119 141 315 350 2
42 136 170 168 185 228 198 205 200 207 222 207 214 231 237 229 239 263 254 252 252 251 254 255 255 253 250 246 242 239 238 239 238 239 240 239 242 242 240 233 226 226 229 231 233 236 236 239 241 241 243 239 239 236 227 228 218 212 222 228 222 222 226 218 214 223 230 237 227 220 234 230 221 220 216 217 216 222 221 216 210 201 206 212 221 228 237 231 216 221 184 173 196 189 266 334 348
101 110 127 135 307 278 228 227 227 227 236 223 218 238 257 227 207 257 253 250 249 248 251 252 252 250 247 243 240 238 236 236 237 239 239 240 241 243 243 238 233 232 234 236 238 240 240 240 242 241 241 239 239 235 225 224 224 225 221 208 213 223 228 227 226 227 228 232 221 218 230 220 216 214 207 215 218 222 221 217 214 212 216 216 224 213 214 235 234 241 233 201 202 193 286 336 0
83 60 316 325 336 298 247 237 236 222 240 237 220 247 283 190 192 244 247 248 248 246 247 249 249 247 243 239 238 237 236 234 235 237 239 242 244 246 247 243 241 240 240 243 242 244 245 243 244 242 241 240 239 236 228 223 224 231 228 210 213 223 233 235 228 229 235 232 224 220 217 209 213 213 208 215 221 223 223 223 221 217 215 216 227 213 209 231 236 234 216 196 198 212 293 323 20
63 54 321 315 354 335 253 241 222 198 231 232 192 275 283 214 228 242 246 246 245 245 244 246 245 242 239 236 236 236 236 235 235 239 242 244 246 245 245 244 242 243 245 246 244 245 246 245 246 244 243 240 238 237 231 228 223 218 224 221 213 216 225 224 215 218 221 225 235 225 211 213 219 222 224 220 217 219 220 222 219 220 220 222 220 197 199 214 211 215 204 198 220 237 272 274 174
53 51 52 326 0 337 278 37 184 181 201 177 147 270 270 241 242 242 246 245 239 239 240 242 242 240 238 236 236 236 235 237 240 244 247 248 247 244 242 241 239 242 244 246 246 245 246 249 247 244 244 239 234 232 225 226 223 213 221 222 203 202 207 208 212 219 222 230 241 216 199 214 223 224 223 212 207 208 218 234 246 246 229 220 209 187 191 198 197 211 211 216 237 247 272 251 151
17 14 26 11 12 285 294 37 153 158 199 175 144 263 266 265 263 250 245 244 237 238 241 242 242 241 241 240 239 240 238 240 244 246 249 250 248 245 242 239 238 240 242 245 245 243 246 249 247 244 241 236 230 227 224 224 226 220 222 219 200 202 212 225 233 233 236 237 224 201 200 214 212 210 209 209 216 218 232 248 250 240 202 197 202 187 188 194 200 211 213 225 235 245 294 109 154
27 353 311 346 151 269 307 278 168 150 191 172 149 257 269 275 279 267 238 233 230 237 244 244 246 246 245 245 244 246 245 244 245 246 246 247 246 245 241 238 238 239 241 243 244 244 245 245 245 241 235 234 225 222 223 219 219 217 215 216 211 214 221 221 224 232 233 221 207 212 220 217 207 211 215 222 235 239 239 233 226 210 184 187 192 184 183 187 192 189 183 200 223 225 204 152 152
2 63 244 275 172 273 317 302 194 146 117 177 194 248 279 285 286 289 223 223 225 233 245 246 248 251 248 248 249 250 251 248 248 247 244 244 244 242 239 237 237 237 239 239 242 244 243 242 240 236 231 226 214 215 223 219 214 216 216 215 212 212 214 212 221 238 228 208 209 219 215 211 214 219 222 228 236 235 222 213 208 192 181 183 183 178 171 162 156 154 164 156 149 171 159 150 142
315 17 233 238 203 213 294 316 269 97 96 212 228 236 259 267 275 285 254 230 226 231 246 251 251 253 251 251 252 252 253 251 251 249 247 245 243 241 237 236 236 237 238 236 238 240 238 237 232 233 227 217 213 213 219 221 218 219 216 213 216 215 216 221 225 228 217 209 218 221 214 211 212 215 221 228 229 216 197 190 190 184 181 178 172 162 152 152 146 147 162 143 132 134 137 134 134
198 184 190 247 241 221 252 284 246 133 79 233 221 247 259 267 274 272 266 246 234 240 251 256 256 256 254 253 253 253 253 252 252 251 250 248 244 242 238 236 237 237 237 235 235 234 231 229 227 228 222 214 213 206 207 218 214 208 207 212 221 212 208 214 213 210 214 221 228 221 213 211 211 214 220 218 205 190 178 173 176 176 171 162 157 155 152 151 139 135 138 131 129 130 130 131 133
160 171 155 184 220 253 236 248 252 181 152 239 226 236 254 264 272 271 267 248 239 249 256 258 259 257 255 254 254 254 253 253 253 251 249 248 245 243 239 237 238 237 236 234 232 231 227 225 222 220 219 215 210 204 209 215 208 208 216 216 213 206 209 224 220 221 228 230 227 214 205 209 211 212 208 193 178 173 168 168 171 168 160 152 153 154 143 133 127 128 125 119 122 131 138 142 141
121 130 138 187 208 265 250 250 282 198 174 251 234 234 257 262 265 270 271 250 237 247 251 255 257 257 255 255 255 255 255 256 254 250 248 247 246 244 240 238 238 237 235 232 230 229 226 224 219 215 217 213 205 206 210 212 213 219 216 208 210 218 230 241 235 230 230 226 221 208 201 202 201 197 186 172 167 167 167 168 169 165 153 145 144 138 131 125 123 123 119 118 121 136 150 154 151
95 126 177 248 213 253 251 233 299 231 176 267 268 252 262 262 263 269 271 245 236 245 246 251 255 256 256 256 257 257 257 257 254 250 247 245 244 243 240 237 237 236 234 232 229 228 225 221 217 216 217 210 203 208 212 214 216 213 209 211 221 224 222 224 224 221 221 222 215 202 195 190 186 181 171 165 165 169 174 173 169 159 140 136 138 133 128 124 125 126 117 123 135 147 155 155 153
95 119 154 262 242 273 282 282 329 21 185 271 309 278 264 264 264 264 260 247 248 252 251 256 257 256 257 257 258 258 256 256 254 251 247 244 242 241 239 237 236 235 234 233 230 228 225 220 217 215 215 210 206 211 214 210 207 207 215 222 222 219 213 210 216 221 222 217 206 194 187 182 178 174 168 167 170 173 178 175 163 148 135 136 141 135 133 131 130 129 113 106 123 141 151 150 154
158 148 160 240 244 273 284 292 323 174 193 278 300 285 273 267 266 258 252 248 253 259 257 260 260 257 259 261 261 261 258 256 254 252 249 244 240 239 238 236 234 233 231 230 230 229 223 219 218 214 214 212 208 212 209 203 208 214 216 216 219 225 222 219 226 227 219 206 195 187 181 177 174 173 172 171 174 175 172 166 154 144 140 143 147 144 139 136 132 123 116 105 93 117 147 153 161
236 195 195 216 223 218 232 289 325 324 351 8 331 299 280 259 261 260 261 259 258 260 259 261 260 259 260 261 261 260 259 258 256 254 250 245 241 239 237 235 233 232 232 231 230 229 224 219 215 213 217 215 207 209 208 207 216 216 209 209 216 220 220 224 224 215 204 194 188 182 178 177 175 175 174 171 172 167 159 156 150 147 151 150 150 149 141 136 133 124 122 121 103 107 130 149 161
274 230 205 212 219 224 244 356 9 353 332 340 20 307 283 285 270 260 282 312 267 258 256 257 260 261 260 259 260 259 258 258 256 255 253 249 244 240 236 235 234 234 234 232 229 227 225 220 215 213 217 215 210 210 211 212 215 216 216 216 214 212 214 217 211 204 199 191 186 182 179 179 177 175 172 166 164 159 155 155 154 157 160 155 148 147 143 135 130 126 119 119 121 121 123 137 153
272 250 204 208 207 213 242 111 63 296 265 289 55 238 277 306 280 264 266 269 264 262 259 259 263 265 262 261 264 263 260 258 256 254 252 248 243 238 236 236 236 235 233 229 225 224 223 220 217 215 215 215 211 210 212 213 211 217 224 223 220 219 218 216 207 201 199 193 189 186 184 179 174 172 168 162 160 160 161 162 162 165 163 153 147 147 144 131 126 124 117 121 128 120 117 129 142
236 251 165 172 175 195 208 160 180 235 268 303 43 143 274 287 270 277 276 257 272 275 268 265 262 263 264 266 268 267 265 262 257 253 250 246 242 239 238 238 237 235 232 226 223 222 221 219 217 214 215 216 212 210 214 214 216 222 220 214 215 221 227 225 209 200 199 197 193 189 184 177 170 169 167 163 164 167 169 169 166 164 160 152 148 146 140 130 126 120 114 123 123 99 102 107 108
246 208 119 136 152 165 141 129 180 328 354 292 241 137 263 270 262 302 324 257 271 273 265 263 260 263 269 273 274 272 269 264 260 256 253 249 246 242 239 237 235 233 230 226 224 222 220 218 216 212 213 214 210 210 212 214 220 222 211 204 208 218 230 225 209 203 201 198 194 189 182 175 170 170 169 169 171 172 173 171 165 160 159 155 147 144 143 136 129 119 110 120 356 20 42 4 348
189 131 94 81 80 81 86 112 129 57 321 252 206 153 228 271 241 212 286 251 246 260 264 264 267 273 278 277 277 275 271 266 261 258 255 251 248 243 237 233 231 231 230 226 222 221 218 215 215 212 210 210 208 209 214 217 218 211 202 202 212 225 230 218 207 205 202 198 193 187 180 176 174 173 173 175 176 175 173 170 165 161 161 157 149 152 157 147 136 141 200 256 279 293 296 302 308
136 112 69 54 39 42 55 53 86 77 274 255 205 179 190 268 257 197 226 231 213 234 260 270 277 283 282 279 277 273 273 270 264 259 253 248 243 238 233 230 230 230 228 224 219 219 217 214 215 211 207 208 207 209 215 214 206 202 205 213 224 234 230 215 208 205 202 197 192 187 182 179 178 176 178 179 179 178 174 171 167 165 165 163 162 167 167 159 163 193 229 241 251 261 270 276 281
117 89 81 76 352 9 25 353 53 151 255 280 261 180 178 234 257 235 249 257 232 226 247 263 277 281 274 276 285 283 280 275 266 257 249 242 236 232 228 227 227 227 225 223 219 217 215 213 214 210 205 205 205 206 211 208 203 208 217 223 231 237 225 212 210 207 204 198 191 188 185 183 181 181 183 183 181 179 176 174 171 171 173 173 175 180 175 173 189 215 228 232 237 243 250 258 264
88 98 111 99 334 351 343 298 117 224 252 275 319 128 202 238 251 257 260 261 248 234 239 246 256 266 266 270 281 285 282 278 270 259 251 244 237 232 227 225 225 224 224 222 218 215 214 212 211 210 205 204 203 204 209 212 215 222 225 225 230 233 222 213 212 211 207 199 193 191 189 187 186 186 186 186 184 180 178 178 177 177 180 183 185 186 182 186 201 218 227 229 232 236 239 245 252
157 148 141 138 148 179 263 265 268 267 267 275 247 206 254 265 259 243 243 248 246 243 249 253 257 263 267 270 272 272 273 273 271 264 257 250 243 236 230 227 224 224 223 222 219 216 214 212 210 210 208 205 205 208 213 217 220 223 223 223 226 227 219 213 213 213 210 201 195 194 194 192 191 190 189 187 186 183 181 181 182 184 188 190 190 188 187 193 204 218 227 229 230 234 235 238 244
187 157 139 162 165 171 218 225 226 259 283 294 280 231 203 211 250 237 237 259 264 253 252 257 262 266 270 273 270 267 267 266 266 264 259 253 247 239 233 229 226 225 223 221 220 217 216 214 212 210 209 208 209 211 214 217 219 217 217 221 224 222 217 213 214 215 211 203 197 197 197 196 195 194 191 189 188 188 187 187 187 190 191 191 190 187 189 197 207 220 229 230 231 231 231 234 240
217 120 122 199 191 164 195 207 182 191 306 298 243 227 216 210 269 268 250 267 275 259 255 258 261 263 268 272 272 270 266 263 263 263 259 253 246 240 234 230 227 225 223 222 221 220 219 217 215 212 209 210 211 211 212 215 216 216 218 221 218 214 213 213 215 215 211 205 200 199 199 199 198 196 195 193 193 192 192 192 191 191 191 190 188 186 191 202 212 223 231 232 232 229 228 234 238
166 139 181 218 176 138 134 256 62 73 282 272 209 244 287 312 282 271 252 258 267 266 267 259 253 258 268 273 273 274 269 264 264 263 261 255 247 241 235 230 228 225 224 223 222 223 223 220 217 213 210 211 213 213 213 214 215 218 221 219 213 212 212 213 215 214 210 205 202 201 200 201 200 199 198 198 197 196 194 194 194 193 191 189 189 190 196 206 216 227 233 233 233 230 230 234 235
129 182 205 177 99 100 118 217 352 43 253 271 244 249 283 296 275 290 268 250 256 256 254 251 255 263 271 269 270 273 275 272 268 262 258 253 247 242 237 232 229 227 226 226 225 225 225 223 220 217 213 211 212 214 215 216 217 219 218 214 212 213 213 214 216 214 210 206 204 202 202 204 203 201 201 201 202 201 197 195 195 194 192 191 193 195 202 212 221 230 235 235 237 235 234 234 233
131 182 179 128 139 203 126 156 209 200 246 278 289 278 260 215 231 251 211 227 238 243 240 244 258 259 257 261 266 273 280 279 272 263 256 252 246 241 238 234 230 228 226 226 227 227 225 224 222 220 217 213 212 216 218 218 219 219 217 215 215 215 214 216 215 213 211 208 207 205 204 205 204 202 203 205 206 205 201 197 194 193 194 194 195 199 207 216 225 232 237 238 239 238 238 237 235
59 108 142 123 163 181 167 159 169 182 227 266 308 316 267 216 202 198 215 225 218 226 239 232 241 247 250 257 267 279 287 286 280 271 262 255 250 244 239 236 233 229 227 225 226 227 226 225 223 220 218 216 216 220 220 217 217 217 216 216 217 217 217 216 214 212 211 209 209 209 207 206 206 205 206 207 208 207 204 199 195 194 195 196 199 203 209 218 225 232 236 237 240 241 242 243 246
145 163 179 192 152 110 167 178 130 142 165 205 300 297 269 237 184 190 213 224 208 200 218 229 236 244 250 256 273 292 298 293 287 278 267 259 254 249 241 236 233 230 227 225 225 227 227 226 225 222 218 216 217 219 219 217 217 217 217 218 219 219 217 215 213 212 212 211 212 211 209 208 207 207 208 209 209 208 205 202 197 195 196 199 202 204 211 218 224 231 236 239 242 242 245 250 254
181 186 192 193 178 149 179 233 223 123 147 181 177 273 272 247 180 198 206 215 213 199 202 227 238 239 248 268 285 297 301 303 301 283 268 259 253 249 243 235 232 229 227 225 225 226 227 226 226 224 220 217 217 218 218 218 218 218 219 220 221 221 218 214 213 212 212 213 213 212 211 209 208 208 209 210 210 209 206 203 199 198 199 200 202 207 212 216 221 229 236 240 242 245 250 255 259